Location: Unspecified
(50.1700°N, 6.8600°E)
Time: 02:56:50
(UTC+00:00)

N. Korean satellite - Pass Details

Date: 21 September 2020
Orbit: 453 x 505 km, 97.2° (Epoch: 21 October)

Event Time Altitude Azimuth Distance (km) Brightness Sun altitude
Rises 03:54:41 0° 32° (NNE) 2,611 11.1 -13.9°
Reaches altitude 10° 03:58:07 10° 66° (ENE) 1,709 10.8 -13.4°
Maximum altitude 03:59:26 12° 87° (E) 1,604 10.5 -13.2°
Drops below altitude 10° 04:00:45 10° 109° (ESE) 1,695 10.2 -13.0°
Sets 04:04:06 0° 143° (SE) 2,556 10.5 -12.5°
